Weather in Salobelyak

Russia / Kirov Oblast     57°06′20″N   48°03′16″E
temp.,
°C
wind,
m/s
gust,
m/s
humid.,
%
clouds,
%
prec.,
mm/h
press.,
hPa
HPBL,
m
19 january, tue
tue1900:00−24n0097100 0.0 102020
03:00−23se1296100 0.0 102020
06:00−22ene1295100 0.0 101820
09:00−21ene2295100 0.0 101832
12:00−19ne2291100 0.0 1018191
15:00−19nne2394100 0.0 1016168
18:00−19nne2394100 0.0 1015125
21:00−19n1198100 0.4 101530
20 january, wed
wed2000:00−19nnw2498100 0.2 101486
03:00−20nw2295100 0.3 101442
06:00−20wnw2295100 0.0 101425
09:00−19w239596 0.0 101594
12:00−17wsw3494100 0.0 1015237
15:00−18wsw3597100 0.0 1015114
18:00−19wsw369990 0.0 101596
21:00−17wsw359790 0.1 1016138
21 january, thu
thu2100:00−15w379699 0.1 1016199
03:00−15w379796 0.2 1016159
06:00−15wsw4795100 0.1 1016246
09:00−16wsw4795100 0.2 1017255
12:00−15wsw4895100 0.1 1016268
15:00−13sw4895100 0.1 1014273
18:00−13ssw4994100 0.0 1012301
21:00−12ssw51195100 1.6 1010568
22 january, fri
fri2200:00−12sw2696100 1.6 1008306
03:00−14w3397100 1.8 100947
06:00−17nw229888 0.0 101020
09:00−18ne119783 0.0 101220
12:00−14se119289 0.0 101361
15:00−15ese229295 0.0 101420
18:00−14ese2392100 0.0 101572
21:00−14ese349398 0.0 101592
23 january, sat
sat2300:00−14ese369399 0.0 1016124
03:00−12se5895100 0.2 1015245
06:00−11se61095100 1.6 1014318
09:00−9se61095100 3.7 1013300
12:00−6sse4796100 1.2 1012237
15:00−2sse2498100 2.7 101295
18:00+1sw4899100 0.2 1012263
21:00+1ssw49100100 0.9 1012221